This is the latest recevied weather packets stored in our database for station/object IR1BY-3. If no packets are shown the sender has not sent any weather packets the latest 10 day(s).
| Time | Temp. | Humidity | Pressure | Rain* | Wind** | Luminosity | Snow |
|---|---|---|---|---|---|---|---|
| 1777588169 | 7.78° C | 99% | 1022.1 hPa | - | - | - | - |
| 1777586369 | 8.33° C | 99% | 1022.1 hPa | - | - | - | - |
| 1777584569 | 8.33° C | 99% | 1022.1 hPa | - | - | - | - |
| 1777582769 | 8.33° C | 99% | 1022 hPa | - | - | - | - |
| 1777580968 | 8.89° C | 99% | 1021.7 hPa | - | - | - | - |
| 1777579168 | 8.89° C | 99% | 1021.4 hPa | - | - | - | - |
| 1777577368 | 8.89° C | 99% | 1021.4 hPa | - | - | - | - |
| 1777575567 | 9.44° C | 99% | 1020.9 hPa | - | - | - | - |
| 1777573767 | 10° C | 99% | 1020.4 hPa | - | - | - | - |
| 1777571967 | 11.11° C | 99% | 1020.2 hPa | - | - | - | - |
| 1777570166 | 12.22° C | 99% | 1020.1 hPa | - | - | - | - |
| 1777568366 | 13.33° C | 99% | 1020 hPa | - | - | - | - |
| 1777566566 | 15.56° C | 99% | 1019.8 hPa | - | - | - | - |
| 1777566381 | 15° C | 99% | 1020 hPa | - | - | - | - |
| 1777564580 | 16.11° C | 99% | 1019.8 hPa | - | - | - | - |
| 1777562780 | 16.67° C | 99% | 1020.1 hPa | - | - | - | - |
| 1777561876 | 17.22° C | 99% | 1019.9 hPa | - | - | - | - |
| 1777560076 | 17.78° C | 99% | 1019.8 hPa | - | - | - | - |
| 1777558275 | 20.56° C | 99% | 1020.5 hPa | - | - | - | - |
| 1777556475 | 23.33° C | 99% | 1020.6 hPa | - | - | - | - |
| 1777554675 | 21.67° C | 99% | 1020.7 hPa | - | - | - | - |
| 1777552874 | 18.33° C | 99% | 1020.8 hPa | - | - | - | - |
| 1777551074 | 18.33° C | 99% | 1020.6 hPa | - | - | - | - |
| 1777549274 | 18.89° C | 99% | 1020.6 hPa | - | - | - | - |
| 1777547474 | 16.67° C | 99% | 1020.7 hPa | - | - | - | - |
* Rain since midnight (hover to see other rain measurements)
** Current wind speed in m/s (hover to see current wind gust speed)